Preview of NWS' New Version of Forecast
This preview is not operational and should not be used for support decisions.

Regional Weather Roundup (RWR)

Issued by National Weather Service (NWS)

                            
000
ASUS42 KTBW 210418
RWRFL 
FLORIDA REGIONAL WEATHER ROUNDUP
NATIONAL WEATHER SERVICE TAMPA BAY RUSKIN FL
1200 AM EDT SUN JUL 21 2019

NOTE: "FAIR" INDICATES FEW OR NO CLOUDS BELOW 12,000 FEET WITH NO
SIGNIFICANT WEATHER AND/OR OBSTRUCTIONS TO VISIBILITY.

FLZ001>010-012>015-112-114-115-210500-
PANHANDLE FLORIDA
  
CITY           SKY/WX    TMP DP  RH WIND       PRES   REMARKS
PENSACOLA      FAIR      77  75  93 CALM      30.05R                  
PENSACOLA NAS  FAIR      75  74  96 NW3       30.04R                  
MILTON NAS     FAIR      73  72  96 CALM        N/A                   
CRESTVIEW      FAIR      74  71  91 CALM      30.08R                  
DUKE FIELD     FAIR      75  74  95 CALM      30.06R                  
VALPARAISO     FAIR      78  73  85 CALM      30.05R                  
MARY ESTHER    PTCLDY    75  72  92 CALM      30.05R                  
TRI COUNTY     FAIR      74  73  97 CALM      30.08R                  
PANAMA CITY    FAIR      74  71  91 CALM      30.07R                  
TYNDALL AFB    FAIR      77  73  87 CALM      30.06R                  
APALACHICOLA   FAIR      75  71  87 N3        30.05S                  

STATION/POSITION SKY/WX   TEMP    WIND        PRES    WAVE   SWELL
                          AIR SEA DIR/SP/G            HT/PER HT/PER
                          (F)     (DEG/KT/KT) (MB)    (FT/S) (FT/S)
30.1N   87.6W              83 86  150/  6/  8 1017.4R   1/ 4   2/ 9
29.2N   88.2W              82 84  150/  8/ 10 1017.6R   1/ 6   2/ 6
28.8N   86.0W                 86   CALM  /  2 1017.8F   1/ 5   2/ 5
PANAMA CITY BEAC           82 86  190/  6/  9 1018.3R
TOWER C                    81     260/  4/  4 1017.7F
28.5N   84.5W              83      50/  8/  8 1018.0F   1/ 4

$$
FLZ011-016>038-118-127-128-134-139-239-210500-
NORTH FLORIDA
  
CITY           SKY/WX    TMP DP  RH WIND       PRES   REMARKS
MARIANNA       FAIR      76  75  97 SW3       30.06R                  
TALLAHASSEE    FAIR      75  73  93 SE3       30.05F                  
PERRY          FAIR      77  76  97 CALM      30.07F                  
LIVE OAK       PTCLDY    77  77 100 CALM      30.08R                  
CROSS CITY     FAIR      74  73  95 N8        30.05F                  
LAKE CITY      MOCLDY    73  72  94 CALM      30.09R                  
GAINESVILLE    FAIR      73  71  93 NE7       30.09F                  
WILLISTON      FAIR      73  73  99 SW3       30.08R                  
PALATKA        CLOUDY    73  72  94 CALM      30.09R                  
MAYPORT NAS    FAIR      78  70  76 E3        30.06S                  
JACKSONVILLE   FAIR      73  72  96 CALM      30.06R                  
JAX NAS        FAIR      78  73  84 SW5       30.08R                  
JAX CECIL      FAIR      73  73 100 CALM      30.07S                  
FERNANDINA BEA FAIR      75  73  93 SE6       30.06S                  
ST AUGUSTINE   FAIR      78  74  87 W3        30.08S                  
PALM COAST     FAIR      75  73  94 CALM      30.08S                  

STATION/POSITION SKY/WX   TEMP    WIND        PRES    WAVE   SWELL
                          AIR SEA DIR/SP/G            HT/PER HT/PER
                          (F)     (DEG/KT/KT) (MB)    (FT/S) (FT/S)
SHELL POINT      NOT AVBL
KEATON BEACH               78      70/  5/  6 1017.8F
CEDAR KEY                  80     120/  4/  5 1018.2R
FERNANDINA                 78 85  110/  3/  6 1018.4
30.7N   81.3W                 84                N/A     2/ 8
MAYPORT                    78 82   60/  4/  5 1018.3F
31.4N   80.9W              82 83  220/ 12/ 14 1017.5F   3/ 4   2/ 9
ST AUGUSTINE               79 77  250/  3/  4 1018.4S

$$
FLZ040-043>046-052-053-057-058-063-144-210500-
INTERIOR CENTRAL FLORIDA
  
CITY           SKY/WX    TMP DP  RH WIND       PRES   REMARKS
OCALA          FAIR      73  72  96 SE3       30.10R                  
LEESBURG       FAIR      79  75  87 SW5       30.09R                  
SANFORD        FAIR      80  75  84 SE6       30.08S                  
ORLANDO EXEC   FAIR      80  75  84 SE3       30.08S                  
ORLANDO INTL   MOCLDY    79  75  87 SE5       30.08F                  
KISSIMMEE      FAIR      78  76  93 CALM      30.09S                  
WINTER HAVEN   FAIR      78  73  84 E3        30.09S                  
LAKELAND       FAIR      73  72  94 CALM      30.09S                  
BARTOW         FAIR      75  75 100 CALM      30.08S                  
SEBRING        FAIR      76  74  92 CALM      30.07F                  
OKEECHOBEE     FAIR      73  72  94 NE3       30.07S                  

$$
FLZ041-047-054-059-064-141-147-210500-
EAST CENTRAL FLORIDA
  
CITY           SKY/WX    TMP DP  RH WIND       PRES   REMARKS
DAYTONA BEACH  FAIR      80  77  90 CALM      30.08S                  
DELAND         FAIR      77  73  88 CALM      30.08R                  
JFK SPACE CTR  CLEAR     80  67  66 SE3       30.08S                  
CAPE CANAVERAL CLEAR     78  56  47 SE6       30.07S                  
PATRICK AFB    FAIR      82  81  98 SE6       30.08S                  
MELBOURNE      FAIR      83  76  79 SE5       30.08S                  
VERO BEACH     FAIR      76  74  93 CALM      30.08F                  
FT PIERCE      FAIR      76  73  91 CALM      30.08S                  
STUART         FAIR      81  73  78 CALM      30.09S                  

STATION/POSITION SKY/WX   TEMP    WIND        PRES    WAVE   SWELL
                          AIR SEA DIR/SP/G            HT/PER HT/PER
                          (F)     (DEG/KT/KT) (MB)    (FT/S) (FT/S)
28.5N   80.2W              83 83  140/  6/  8 1018.7R   2/ 8   2/ 8
28.9N   78.5W              85 86  150/  6/ 10   N/A     2/ 8   2/ 8
TRIDENT PIER               81 83  130/  6/  7 1020.2
28.4N   80.5W                 82                N/A     2/ 9
27.5N   80.2W                 83                N/A     2/ 8

$$
FLZ050-056-061-142-242-148-248-149-249-151-251-155-255-
160-260-210500-
WEST CENTRAL FLORIDA
  
CITY           SKY/WX    TMP DP  RH WIND       PRES   REMARKS
CRYSTAL RIVER  FAIR      72  72 100 CALM      30.08S                  
INVERNESS      FAIR      73  73 100 CALM      30.09R                  
BROOKSVILLE    FAIR      73  72  96 SW3       30.10R                  
CLEARWATER AIR FAIR      77  73  88 SE5       30.07R                  
ST PETE CLEARW FAIR      77  73  87 SE5       30.08R                  
TAMPA INTL     MOCLDY    78  74  87 NE6       30.09R                  
TAMPA EXEC     FAIR      73  72  94 CALM      30.09S                  
PLANT CITY     FAIR     N/A N/A N/A MISG      30.11R                  
MACDILL AFB    CLOUDY    76  73  90 N5        30.07R                  
PETER O KNIGHT MOCLDY    77  77 100 N3        30.09R                  
ST PETERSBURG  FAIR      81  71  71 E5        30.06R                  
SARASOTA       FAIR      74  72  93 CALM      30.04S                  
VENICE         FAIR      75  73  94 NE7       30.06F                  

STATION/POSITION SKY/WX   TEMP    WIND        PRES    WAVE   SWELL
                          AIR SEA DIR/SP/G            HT/PER HT/PER
                          (F)     (DEG/KT/KT) (MB)    (FT/S) (FT/S)
27.3N   84.2W                 87                N/A     1/ 4
CLEARWATER BEACH           79 89   80/  5/  9 1018.2R
MIDDLE TAMPA BAY           77     130/  7/  8 1018.3R
VENICE                     75 87   50/  6/  7 1017.8F

$$
FLZ066-069-070-075>078-162-262-165-265-210500-
SOUTHWEST FLORIDA AND KEYS
  
CITY           SKY/WX    TMP DP  RH WIND       PRES   REMARKS
PUNTA GORDA    FAIR      74  73  97 E6        30.07F                  
FT MYERS       FAIR      75  72  90 NE3       30.05S                  
SOUTHWEST INTL FAIR      76  73  91 NE7       30.06S                  
MARCO ISLAND   FAIR      77  76  96 MISG      30.07R                  
IMMOKALEE      CLOUDY    75  73  94 SE5       30.05R                  
MARATHON       FAIR      84  73  69 SE7       30.05R                  
KEY WEST NAS   MOCLDY    85  76  74 E16       30.04R                  
KEY WEST INTL  FAIR      85  76  74 E15       30.04R                  

STATION/POSITION SKY/WX   TEMP    WIND        PRES    WAVE   SWELL
                          AIR SEA DIR/SP/G            HT/PER HT/PER
                          (F)     (DEG/KT/KT) (MB)    (FT/S) (FT/S)
NAPLES                     78 86              1017.4R
26.0N   85.6W              85 86   90/ 10/ 10 1017.3R   2/ 7   2/ 7
DRY TORTUGAS               84     120/  9/  9 1017.0R
SAND KEY                   84     100/ 11/ 13 1016.1R
SOMBRERO KEY               81     140/  8/ 11 1017.9
LONG KEY                   84                 1016.9

$$
FLZ067-068-071>074-168-172>174-210500-
SOUTHEAST FLORIDA 
  
CITY           SKY/WX    TMP DP  RH WIND       PRES   REMARKS
W PALM BEACH   FAIR      82  75  79 SE6       30.08S                  
FT LAUDER-EXEC FAIR      82  75  79 E6        30.07R                  
FT LAUDERDALE  MOCLDY    84  76  76 E7        30.06S                  
POMPANO BEACH  FAIR      84  75  74 E3        30.07R                  
PEMBROKE PINES FAIR      82  74  76 E5        30.08S                  
OPA LOCKA      FAIR      82  75  79 NE3       30.07S                  
MIAMI          FAIR      84  74  71 E7        30.06F                  
WEST KENDALL   FAIR      82  77  84 NE6       30.05F                  
HOMESTEAD      MOCLDY    83  77  82 E5        30.05S                  

STATION/POSITION SKY/WX   TEMP    WIND        PRES    WAVE   SWELL
                          AIR SEA DIR/SP/G            HT/PER HT/PER
                          (F)     (DEG/KT/KT) (MB)    (FT/S) (FT/S)
VIRGINIA KEY               84 88   90/  7/ 10 1017.6S
LAKE WORTH                 83 84  150/  5/  6 1019.6
FOWEY ROCKS                83 85  120/ 12/ 13 1018.2F
SETTLEMENT POINT           82     140/  5/  7 1018.8S

$$